Regional Weather Roundup
Issued by NWS

Home | Current Version | Previous Version | Text Only | Print | Product List | Glossary On
Versions: 1 2 3 4 5 6 7 8 9 10 11 12 13 14 15 16 17 18 19 20 21 22 23 24 25 26 27 28 29 30 31 32 33 34 35 36 37 38 39 40 41 42 43 44 45 46 47 48 49 50
000
ASUS44 KMEG 010110
RWRTN
TENNESSEE HOURLY STATE WEATHER ROUNDUP
NATIONAL WEATHER SERVICE MEMPHIS TN
700 PM CST SAT JAN 31 2015

TNZ002-004-019-021-049-052-054-088>092-010200-
WEST TENNESSEE

CITY           SKY/WX    TMP DP  RH WIND       PRES   REMARKS
MEMPHIS INTL   CLOUDY    46  25  43 E7        30.16F
NWS MEMPHIS      N/A     44 N/A N/A MISG        N/A
JACKSON        CLOUDY    43  23  45 E5        30.20F
DYERSBURG      CLOUDY    43  19  39 E6        30.22F
UNION CITY     PTCLDY    39  25  56 E8        30.19F WCI  34
PARIS          PTCLDY    39  21  48 E5        30.23S
LEXINGTON      PTCLDY    43  21  42 NE3       30.21F
SAVANNAH       PTCLDY    45  19  36 SE3       30.22F
$$

TNZ008-025-027-028-033-062-065-066-010200-
NORTH MIDDLE TENNESSEE

CITY           SKY/WX    TMP DP  RH WIND       PRES   REMARKS
NASHVILLE      CLOUDY    43  16  33 E3        30.26F
CLARKSVILLE    MOCLDY    43  23  45 SE3       30.26S
SMYRNA         CLOUDY    41  20  43 NE5       30.27F
COOKEVILLE     PTCLDY    41  18  38 CALM      30.25F
CROSSVILLE     CLOUDY    40  14  34 CALM      30.26F
$$

TNZ061-075-076-078-094-096-097-010200-
SOUTH MIDDLE TENNESSEE

CITY           SKY/WX    TMP DP  RH WIND       PRES   REMARKS
FAYETTEVILLE   CLEAR     43  19  39 MISG      30.25F
TULLAHOMA      CLEAR     43  14  31 CALM      30.26F
WINCHESTER     PTCLDY    43  18  36 E7        30.26F
MCMINNVILLE    PTCLDY    41  19  42 CALM      30.26S
COLUMBIA       PTCLDY    43  21  42 E3        30.23F
SHELBYVILLE      N/A     43  25  49 CALM      30.26F
$$

TNZ017-018-042-046-047-010200-
NORTHEAST TENNESSEE

CITY           SKY/WX    TMP DP  RH WIND       PRES   REMARKS
TRI CITIES     CLOUDY    37  17  44 CALM      30.30S
ELIZABETHTON   CLEAR     30  16  55 CALM      30.29S
$$

TNZ012-013-036-069-073-074-010200-
CENTRAL EAST TENNESSEE

CITY           SKY/WX    TMP DP  RH WIND       PRES   REMARKS
KNOXVILLE      CLOUDY    40  21  46 SW3       30.29F
OAK RIDGE      FAIR      43  15  32 CALM      30.31S
GATLINBURG     PTCLDY    37  16  41 CALM      30.29F
MORRISTOWN     PTCLDY    37  21  52 CALM      30.30S
$$

TNZ083-085-099-010200-
SOUTHEAST TENNESSEE

CITY           SKY/WX    TMP DP  RH WIND       PRES   REMARKS
CHATTANOOGA    CLOUDY    44  19  36 NE5       30.30F
$$

SKY/WX REPORTED AS FAIR MEANS FEW OR NO CLOUDS BELOW
12 THOUSAND FEET.




USA.gov is the U.S. government's official web portal to all federal, state and local government web resources and services.